Location: Kampung Segan
(3.1399°N, 113.1002°E)
Time: 13:16:30
(UTC+00:00)

USA 267 - Pass Details

Date: 05 August 2024
Orbit: 1096 x 1111 km, 123.1° (Epoch: 03 September)

Event Time Altitude Azimuth Distance (km) Brightness Sun altitude
Exits shadow 12:24:12 40° 157° (SSE) 1,574 3.7 -25.3°
Maximum altitude 12:26:48 75° 233° (SW) 1,134 3.3 -25.9°
Drops below altitude 10° 12:33:18 10° 318° (NW) 2,952 6.3 -27.5°
Sets 12:35:47 0° 320° (NW) 3,910 7.0 -28.0°
